Back to catalog

ARIANE 5 R/B

AliveSSO
NORAD 27387·ROCKET BODY·🇫🇷 France

Launched Mar 1, 2002 from Guiana Space Centre

Loading…

Next Passes (next 24 hours)

TLE

FreshSource: Space-Track

Epoch: Sep 14, 2026, 07:48 UTC

1 27387U 02009B   26257.32504625  .00000019  00000-0  21968-4 0  9997
2 27387  98.8073 277.5413 0031325 221.3927 138.4884 14.36808079286113

Track ARIANE 5 R/B in real time with AllMySat

Download on the App Store